Showing default

FLOCK 4H 3, 66706

Orbit data source: Space-Track

FLOCK 4H 3, 66706 is a payload satellite owned by Planet (US) in SSO that was launched on Fri, 28 Nov 2025 UTC via an FALCON 9 launch vehicle from the Air Force Western Test Range (AFWTR). Payload-class satellites include a variety of spacecraft equipped with specific instruments for various scientific and technological missions. These include communications satellites like Starlink; space stations such as the ISS; scientific satellites like the Hubble; Earth observation satellites from companies like Planet Labs, Umbra, and HawkEye 360; GPS; miniature CubeSats for education and research; and military/defense satellites.

Loading next visibility...
Identifier
66706, 2025-276AS
Orbit
SSO
Country
Flag of USUS
Related business
Manufacturer
Planet
Mission
Operational Commercial Imaging
Bus & Motor
CUBESAT 3U, Unknown motor
Mass
5.7 kg wet, 5.7 kg dry
Launch date (UTC)
2025-11-28 (2 months ago)
Launch vehicle
FALCON 9
Launch site
Air Force Western Test Range (AFWTR)
Object type
Payload
Rocket body
Debris
Shape & HBR
Box + 2 Pan, 1.0 m
Radar Cross Section
0.072 m²

Expand to show TLE details & history
Last TLE update: 23 hours ago

TLE from 23 hours ago
0 FLOCK 4H 3
1 66706U 25276AS  26034.15336451  .00008049  00000-0  39722-3 0  9997
2 66706  97.4378 110.0350 0005482 106.5583 253.6254 15.18145623 10073
Epoch: 2026-02-03T03:40Z
TLE epoch observation values (Epoch: 2026-02-03T03:40:50.693Z)
Latitude
0.00001°
Longitude
-78.51461°
Altitude
515.599 km
Speed
7.605 km/s
True Right ascension
07h 20m 08s
True Declination
0° 00' 00"
Sunlit
Object was in full shadow at epoch
Visualization orbit readout
Latitude
Unknown
Longitude
Unknown
Altitude
Unknown
Speed
Unknown
Apparent Right ascension
Unknown
Apparent Declination
Unknown
Sunlit
N/A
Visualization observer readout
Local Sidereal Time
04:10:19
Azimuth
Unknown
Elevation
Unknown
Doppler factor
Unknown
Orbital elements
Apogee altitude
512.19 km
Perigee altitude
504.64 km
Semi-major axis
6,886.552 km
Eccentricity
0.00055
Inclination
97.4378°
RAAN
110.035°
Arg. of periapsis
106.5583°
True anomaly
253.56514°
Mean anomaly
253.6254°
Eccentric anomaly
253.59527°
Mean motion
3.79787 °/min
Orbital period
94.79 mins
BSTAR
0.00039722
Loading maneuver chart data...
Computing Atmospheric mass density...
Loading historical data...
Loading historical data...
Loading historical data...
Loading historical data...
Loading historical data...
Loading historical data...
Loading historical data...

Documentation

Showing up to 5 results
|